SCP
0 0 0 0 0 0 0 0 0 0 0 0 0 0 0 0 0 0 0 0 0 0 0 0 0 0 0 0 0 0 0 0
0 0 0 0 0 0 0 0 0 0 0 0 0 0 0 0 0 0 0 0 0 0 0 0 0 0 0 0 0 0 0 0
0 0 0 0 0 0 0 0 0 0 0 0 0 0 0 0 0 0 0 0 0 0 0 0 0 0 0 0 0 0 0 0
0 0 0 0 0 0 0 0 0 0 0 0 0 0 0 0 0 0 0 0 0 0 0 0 0 0 0 0 0 0 0 0
0 0 0 0 0 0 0 0 0 0 0 0 0 0 0 0 0 0 0 0 0 0 0 0 0 0 0 0 0 0 0 0
0 0 0 0 0 0 0 0 0 0 0 0 0 0 0 0 0 0 0 0 0 0 0 0 0 0 0 0 0 0 0 0
0 0 0 0 0 0 0 0 0 0 0 0 0 0 0 0 0 0 0 0 0 0 0 0 0 0 0 0 0 0 0 0
0 0 0 0 0 0 0 0 0 0 0 0 0 0 0 0 0 0 0 0 0 0 0 0 0 0 0 0 0 0 0 0
0 0 0 0 0 0 0 0 0 0 0 0 0 0 0 0 0 0 0 0 0 0 0 0 0 0 0 0 0 0 0 0
0 0 0 0 0 0 0 0 0 0 0 0 0 0 0 0 0 0 0 0 0 0 0 0 0 0 0 0 0 0 0 0
0 0 0 0 0 0 0 0 0 0 0 0 0 0 0 0 0 0 0 0 0 0 0 0 0 0 0 0 0 0 0 0
0 0 0 0 0 0 0 0 0 0 0 0 0 0 0 0 0 0 0 0 0 0 0 0 0 0 0 0 0 0 0 0
0 0 0 0 0 0 0 0 0 0 0 0 0 0 0 0 0 0 0 0 0 0 0 0 0 0 0 0 0 0 0 0
0 0 0 0 0 0 0 0 0 0 0 0 0 0 0 0 0 0 0 0 0 0 0 0 0 0 0 0 0 0 0 0
0 0 0 0 0 0 0 0 0 0 0 0 0 0 0 0 0 0 0 0 0 0 0 0 0 0 0 0 0 0 0 0
0 0 0 0 0 0 0 0 0 0 0 0 0 0 0 0 0 0 0 0 0 0 0 0 0 0 0 0 0 0 0 0
0 0 0 0 0 0 0 0 0 0 0 0 0 0 0 0 0 0 0 0 0 0 0 0 0 0 0 0 0 0 0 0
0 0 0 0 0 0 0 0 0 0 0 0 0 0 0 0 0 0 0 0 0 0 0 0 0 0 0 0 0 0 0 0
0 0 0 0 0 0 0 0 0 0 0 0 0 0 0 0 0 0 0 0 0 0 0 0 0 0 0 0 0 0 0 0
0 0 0 0 0 0 0 0 0 0 0 0 0 0 0 0 0 0 0 0 0 0 0 0 0 0 0 0 0 0 0 0
Wind_Speed_500mb
40 48 57 71 86 90 87 85 80 76 77 77 74 71 70 73 67 64 63 62 61 59 57 54 53 52 53 56 59 61 62 65
44 37 45 53 62 76 78 79 78 76 78 80 77 72 71 70 65 60 58 57 57 57 57 55 54 53 57 61 62 63 62 65
50 49 39 39 49 60 68 71 70 70 71 72 70 69 69 68 63 61 59 55 54 54 54 56 56 56 59 58 61 60 62 65
40 47 50 48 48 50 57 62 63 63 62 62 63 62 62 62 63 60 58 59 56 55 57 56 54 55 56 60 58 59 60 60
47 45 43 42 42 43 45 46 49 53 54 55 54 55 56 56 57 58 57 56 55 54 53 54 54 55 54 54 58 58 63 62
48 49 47 44 42 41 41 42 42 43 44 46 47 50 52 53 53 52 51 50 50 50 51 52 53 53 54 53 59 62 63 65
52 50 48 45 43 40 39 37 36 36 36 39 41 42 40 39 39 38 38 37 38 37 38 40 40 43 48 51 55 59 62 63
58 52 47 48 44 41 38 36 33 31 32 32 32 33 34 35 35 34 34 33 34 34 34 35 37 40 42 45 49 50 51 53
59 53 53 52 49 44 41 39 37 36 35 35 35 36 37 37 37 36 36 35 35 35 34 34 37 40 43 45 43 42 44 42
73 65 56 55 55 51 47 45 43 41 38 37 38 39 38 37 36 35 35 35 33 34 36 37 40 41 43 43 38 34 33 33
76 69 66 59 59 56 52 49 45 41 39 40 42 43 42 41 39 37 34 31 31 32 32 32 33 34 35 37 34 33 29 28
74 88 70 63 64 62 57 51 46 45 47 49 50 48 44 40 36 30 26 23 24 24 24 22 22 22 24 25 22 25 22 23
88 91 81 74 74 66 60 57 55 53 52 52 50 46 41 34 30 28 25 22 20 17 15 13 12 17 20 21 22 22 23 24
87 85 84 79 72 67 64 62 55 53 52 50 46 41 36 32 29 25 20 16 13 13 13 14 16 19 21 22 21 22 23 22
89 88 79 76 74 70 65 61 58 55 50 48 44 42 39 34 29 23 17 14 13 11 11 11 11 12 12 13 16 18 18 18
88 86 78 74 73 71 68 61 56 53 51 52 49 45 42 39 34 27 21 14 9 7 8 8 7 7 8 9 9 11 12 16
73 71 70 68 66 65 63 60 57 56 57 55 53 49 45 38 31 25 19 17 15 16 13 8 5 4 6 9 13 16 17 19
61 59 59 58 57 57 57 57 57 57 58 57 52 48 42 35 30 27 26 22 19 17 12 8 3 2 8 13 15 16 18 19
51 50 51 50 50 53 55 57 58 57 54 52 49 43 38 34 32 27 23 21 20 17 13 8 4 5 8 13 20 21 23 24
44 44 46 46 47 49 53 54 54 52 49 46 44 41 38 36 33 30 28 24 20 16 11 5 2 4 11 17 19 24 28 30
Wind_Direction_500mb
237 235 232 231 232 233 236 238 241 242 243 245 246 246 250 254 259 264 266 268 270 272 273 274 274 274 274 274 274 275 275 276
239 240 231 229 230 230 230 233 237 240 242 245 247 249 251 255 259 262 264 265 267 269 272 274 273 272 272 272 276 276 279 281
239 233 230 232 232 229 230 233 237 241 244 247 250 250 251 254 257 259 262 264 265 268 271 270 270 272 272 275 276 277 278 281
226 223 227 231 230 232 230 230 233 237 240 241 243 244 246 249 254 259 262 263 264 263 264 268 270 271 269 271 273 273 277 283
226 226 223 222 220 219 220 224 227 230 234 237 239 241 244 248 251 256 259 262 264 263 263 263 262 261 265 265 269 270 275 278
221 220 218 216 213 210 213 219 226 228 228 231 233 236 240 245 249 253 256 258 260 260 260 259 259 258 259 260 263 271 276 279
218 218 218 216 211 205 203 205 209 213 217 221 226 231 235 240 244 248 252 254 255 256 257 258 259 260 264 267 270 274 279 281
216 210 207 204 201 201 200 203 208 214 218 222 226 230 235 238 240 242 244 247 250 252 254 257 262 266 270 275 276 278 281 284
212 206 204 202 197 200 205 211 217 221 225 227 230 231 231 231 232 234 236 241 246 252 259 266 269 272 273 276 280 285 289 294
211 204 206 208 205 207 212 218 220 222 223 225 229 230 230 231 232 235 239 245 252 258 262 266 270 274 278 279 282 284 288 294
219 211 216 216 213 213 215 214 213 217 225 232 234 235 235 235 236 240 246 254 260 262 267 273 279 287 293 296 296 295 293 292
229 218 221 220 216 214 214 213 216 224 233 236 237 235 236 236 238 241 245 248 254 260 266 270 279 291 295 297 290 286 280 278
235 224 222 220 216 213 215 215 222 230 234 233 230 230 229 228 228 226 228 228 235 245 258 270 287 297 298 295 291 290 290 287
230 218 214 214 214 216 218 222 229 233 231 227 222 218 215 213 215 212 208 210 227 249 265 282 300 306 308 313 314 306 300 303
216 210 209 209 214 218 221 227 229 227 224 220 214 208 203 200 197 199 201 212 228 257 284 300 312 313 315 321 320 323 324 321
212 205 205 208 212 217 223 225 224 221 216 210 203 196 194 192 192 196 201 201 207 234 253 263 281 296 303 318 329 330 343 342
202 201 204 209 214 218 219 219 217 213 206 201 197 193 194 194 193 197 198 210 217 223 222 227 242 281 325 338 342 345 350 348
207 208 209 208 210 214 214 211 207 205 201 198 196 195 195 193 195 198 193 199 202 201 199 192 187 81 349 347 343 343 341 342
211 204 203 204 205 205 204 203 200 197 199 198 196 195 195 195 196 198 198 201 193 187 169 150 110 16 351 336 331 336 339 343
196 196 196 196 195 196 197 197 195 195 196 196 195 194 194 194 192 188 187 180 171 165 170 168 216 318 323 322 323 327 328 329
Wind_Speed_850mb
40 48 57 71 86 90 87 85 80 76 77 77 74 71 70 73 67 64 63 62 61 59 57 54 53 52 53 56 59 61 62 65
44 37 45 53 62 76 78 79 78 76 78 80 77 72 71 70 65 60 58 57 57 57 57 55 54 53 57 61 62 63 62 65
50 49 39 39 49 60 68 71 70 70 71 72 70 69 69 68 63 61 59 55 54 54 54 56 56 56 59 58 61 60 62 65
40 47 50 48 48 50 57 62 63 63 62 62 63 62 62 62 63 60 58 59 56 55 57 56 54 55 56 60 58 59 60 60
47 45 43 42 42 43 45 46 49 53 54 55 54 55 56 56 57 58 57 56 55 54 53 54 54 55 54 54 58 58 63 62
48 49 47 44 42 41 41 42 42 43 44 46 47 50 52 53 53 52 51 50 50 50 51 52 53 53 54 53 59 62 63 65
52 50 48 45 43 40 39 37 36 36 36 39 41 42 40 39 39 38 38 37 38 37 38 40 40 43 48 51 55 59 62 63
58 52 47 48 44 41 38 36 33 31 32 32 32 33 34 35 35 34 34 33 34 34 34 35 37 40 42 45 49 50 51 53
59 53 53 52 49 44 41 39 37 36 35 35 35 36 37 37 37 36 36 35 35 35 34 34 37 40 43 45 43 42 44 42
73 65 56 55 55 51 47 45 43 41 38 37 38 39 38 37 36 35 35 35 33 34 36 37 40 41 43 43 38 34 33 33
76 69 66 59 59 56 52 49 45 41 39 40 42 43 42 41 39 37 34 31 31 32 32 32 33 34 35 37 34 33 29 28
74 88 70 63 64 62 57 51 46 45 47 49 50 48 44 40 36 30 26 23 24 24 24 22 22 22 24 25 22 25 22 23
88 91 81 74 74 66 60 57 55 53 52 52 50 46 41 34 30 28 25 22 20 17 15 13 12 17 20 21 22 22 23 24
87 85 84 79 72 67 64 62 55 53 52 50 46 41 36 32 29 25 20 16 13 13 13 14 16 19 21 22 21 22 23 22
89 88 79 76 74 70 65 61 58 55 50 48 44 42 39 34 29 23 17 14 13 11 11 11 11 12 12 13 16 18 18 18
88 86 78 74 73 71 68 61 56 53 51 52 49 45 42 39 34 27 21 14 9 7 8 8 7 7 8 9 9 11 12 16
73 71 70 68 66 65 63 60 57 56 57 55 53 49 45 38 31 25 19 17 15 16 13 8 5 4 6 9 13 16 17 19
61 59 59 58 57 57 57 57 57 57 58 57 52 48 42 35 30 27 26 22 19 17 12 8 3 2 8 13 15 16 18 19
51 50 51 50 50 53 55 57 58 57 54 52 49 43 38 34 32 27 23 21 20 17 13 8 4 5 8 13 20 21 23 24
44 44 46 46 47 49 53 54 54 52 49 46 44 41 38 36 33 30 28 24 20 16 11 5 2 4 11 17 19 24 28 30
Wind_Direction_850mb
237 235 232 231 232 233 236 238 241 242 243 245 246 246 250 254 259 264 266 268 270 272 273 274 274 274 274 274 274 275 275 276
239 240 231 229 230 230 230 233 237 240 242 245 247 249 251 255 259 262 264 265 267 269 272 274 273 272 272 272 276 276 279 281
239 233 230 232 232 229 230 233 237 241 244 247 250 250 251 254 257 259 262 264 265 268 271 270 270 272 272 275 276 277 278 281
226 223 227 231 230 232 230 230 233 237 240 241 243 244 246 249 254 259 262 263 264 263 264 268 270 271 269 271 273 273 277 283
226 226 223 222 220 219 220 224 227 230 234 237 239 241 244 248 251 256 259 262 264 263 263 263 262 261 265 265 269 270 275 278
221 220 218 216 213 210 213 219 226 228 228 231 233 236 240 245 249 253 256 258 260 260 260 259 259 258 259 260 263 271 276 279
218 218 218 216 211 205 203 205 209 213 217 221 226 231 235 240 244 248 252 254 255 256 257 258 259 260 264 267 270 274 279 281
216 210 207 204 201 201 200 203 208 214 218 222 226 230 235 238 240 242 244 247 250 252 254 257 262 266 270 275 276 278 281 284
212 206 204 202 197 200 205 211 217 221 225 227 230 231 231 231 232 234 236 241 246 252 259 266 269 272 273 276 280 285 289 294
211 204 206 208 205 207 212 218 220 222 223 225 229 230 230 231 232 235 239 245 252 258 262 266 270 274 278 279 282 284 288 294
219 211 216 216 213 213 215 214 213 217 225 232 234 235 235 235 236 240 246 254 260 262 267 273 279 287 293 296 296 295 293 292
229 218 221 220 216 214 214 213 216 224 233 236 237 235 236 236 238 241 245 248 254 260 266 270 279 291 295 297 290 286 280 278
235 224 222 220 216 213 215 215 222 230 234 233 230 230 229 228 228 226 228 228 235 245 258 270 287 297 298 295 291 290 290 287
230 218 214 214 214 216 218 222 229 233 231 227 222 218 215 213 215 212 208 210 227 249 265 282 300 306 308 313 314 306 300 303
216 210 209 209 214 218 221 227 229 227 224 220 214 208 203 200 197 199 201 212 228 257 284 300 312 313 315 321 320 323 324 321
212 205 205 208 212 217 223 225 224 221 216 210 203 196 194 192 192 196 201 201 207 234 253 263 281 296 303 318 329 330 343 342
202 201 204 209 214 218 219 219 217 213 206 201 197 193 194 194 193 197 198 210 217 223 222 227 242 281 325 338 342 345 350 348
207 208 209 208 210 214 214 211 207 205 201 198 196 195 195 193 195 198 193 199 202 201 199 192 187 81 349 347 343 343 341 342
211 204 203 204 205 205 204 203 200 197 199 198 196 195 195 195 196 198 198 201 193 187 169 150 110 16 351 336 331 336 339 343
196 196 196 196 195 196 197 197 195 195 196 196 195 194 194 194 192 188 187 180 171 165 170 168 216 318 323 322 323 327 328 329